Regional Weather Roundup
Issued by NWS

Home | Current Version | Previous Version | Text Only | Print | Product List | Glossary Off
Versions: 1 2 3 4 5 6 7 8 9 10 11 12 13 14 15 16 17 18 19 20 21 22 23 24 25 26 27 28 29 30 31 32 33 34 35 36 37 38 39 40 41 42 43 44 45 46 47 48 49 50

000
ASUS43 KLSX 281910
RWRMO

WEATHER SUMMARY FOR MISSOURI
NATIONAL WEATHER SERVICE SPRINGFIELD MO
200 PM CDT THU APR 28 2016

NOTE: "FAIR" INDICATES FEW OR NO CLOUDS BELOW 12,000 FEET WITH NO
       SIGNIFICANT WEATHER AND/OR OBSTRUCTIONS TO VISIBILITY.
       CURRENT SKY AND/OR WEATHER CONDITIONS ARE NOT AVAILABLE FOR
       CHILLICOTHE AND FARMINGTON.

MOZ001>031-035>038-043-044-053-054-282000-
...NORTHERN AND WESTERN MISSOURI...

CITY           SKY/WX    TMP DP  RH WIND       PRES   REMARKS
KANSAS CTY INT CLOUDY    55  46  71 NW8G18    29.96S
KANSAS C DTWN  CLOUDY    59  47  64 NW14      29.96R
LEE`S SUMMIT   MOSUNNY   61  48  62 NW10G18   29.95R
ST JOSEPH      CLOUDY    53  46  77 W8        29.96R
CHILLICOTHE      N/A     56  48  74 SW7       29.95R
KIRKSVILLE     CLOUDY    56  47  71 W15G21    29.92R

$$
MOZ066>068-077>081-088>096-101>105-282000-
...SOUTHWEST MISSOURI...

CITY           SKY/WX    TMP DP  RH WIND       PRES   REMARKS
SPRINGFIELD    SUNNY     68  43  40 W8        29.94F
JOPLIN         SUNNY     66  46  48 NW8       29.97S
BRANSON        MOSUNNY   70  39  32 CALM      29.96F

$$
MOZ032>034-039>042-045>050-055>058-069>072-282000-
...CENTRAL MISSOURI...

CITY           SKY/WX    TMP DP  RH WIND       PRES   REMARKS
COLUMBIA       MOSUNNY   63  49  60 NW14      29.92S
JEFFERSON CITY SUNNY     65  48  54 W8        29.91S
ROLLA          SUNNY     67  49  52 NW13      29.90F
SEDALIA        MOSUNNY   62  51  67 NW10      29.95R
WHITEMAN AFB   MOSUNNY   60  49  66 W10       29.94R
WARRENSBURG    MOSUNNY   61  46  59 W7        29.95S
OSAGE BEACH    SUNNY     66  45  45 W9        29.92S

$$
MOZ051-052-059>065-282000-
...EAST CENTRAL MISSOURI...

CITY           SKY/WX    TMP DP  RH WIND       PRES   REMARKS
ST LOUIS INTL  MOSUNNY   71  48  43 W13G23    29.89S
SPIRIT OF STL  MOSUNNY   68  49  50 SW10      29.88F
ST CHARLES     MOSUNNY   67  50  54 W14       29.88S

$$
MOZ072>076-082>087-097>100-106>115-282000-
...SOUTH CENTRAL AND SOUTHEAST MISSOURI...

CITY           SKY/WX    TMP DP  RH WIND       PRES   REMARKS
CAPE GIRARDEAU SUNNY     75  50  41 W9        29.90R
FARMINGTON     SUNNY     73  49  42 W8        29.91R
POPLAR BLUFF   SUNNY     76  45  33 W10       29.91S
WEST PLAINS    SUNNY     74  42  31 W8        29.95S

$$




USA.gov is the U.S. government's official web portal to all federal, state and local government web resources and services.